Buoy 55932

sailwx.info

Track history (hours):
 
Tides and Currents Weather Stations Pressure Air Temp Water Temp Dewpoint Dewpoint Depression Visibility Wind Speed Wind Dir Waves Ship Positions

Drifting buoy 55932

Last reported at 2017-Dec-16 22:00 UTC. Time now 2017-Dec-17 00:37 UTC.
Position S 20°52' E 165°16'.

Water temperature 24.1 ° C

Date/timePositionNaut miles runAvg speedWind from/ knotsBaromVisibWave heightAir tempDewpointWater temp
2017-Dec-16 22:00S 20°52' E 165°16'0 0.0 24.1
2017-Dec-16 19:00S 20°52' E 165°16'0 0.0 23.4
2017-Dec-16 16:00S 20°52' E 165°16'0 0.0 22.8
2017-Dec-16 15:00S 20°52' E 165°16'1 0.1 23.5
2017-Dec-16 11:00S 20°52' E 165°16'1 0.6 23.8
2017-Dec-16 10:00S 20°52' E 165°16'0 0.0 24.2
2017-Dec-16 09:00S 20°52' E 165°16'0 0.0 24.9
2017-Dec-16 08:00S 20°52' E 165°16'0 0.0 24.2
2017-Dec-16 07:00S 20°52' E 165°16'0 0.0 24.4
2017-Dec-16 06:00S 20°52' E 165°16'1 0.6 24.2
2017-Dec-16 05:00S 20°52' E 165°16'0 0.0 24.2
2017-Dec-16 04:00S 20°52' E 165°16'1 0.1 23.9
2017-Dec-15 23:00S 20°52' E 165°16'0 0.0 25.5
2017-Dec-15 22:00S 20°52' E 165°16'1 0.6 25.4
2017-Dec-15 21:00S 20°52' E 165°16'1 0.6 25.6
2017-Dec-15 20:00S 20°52' E 165°16'1 0.3 25.4
2017-Dec-15 18:00S 20°52' E 165°16'1 0.3 25.1
2017-Dec-15 16:00S 20°52' E 165°16'0 0.0 25.4
2017-Dec-15 15:00S 20°52' E 165°16'0 0.0 26.0
2017-Dec-15 10:00S 20°52' E 165°16'0 0.0 25.3
2017-Dec-15 09:00S 20°52' E 165°16'0 0.0 26.3
2017-Dec-15 08:00S 20°52' E 165°16'0 0.0 26.8
2017-Dec-15 07:00S 20°52' E 165°16'0 0.0 27.1
2017-Dec-15 06:00S 20°52' E 165°16'0 0.0 27.6
2017-Dec-15 05:00S 20°52' E 165°16'0 0.0 28.6
2017-Dec-15 04:00S 20°52' E 165°16'0 0.0 28.4
2017-Dec-14 23:00S 20°52' E 165°16'0 0.0 27.8
2017-Dec-14 21:00S 20°52' E 165°16'0 0.0 25.6
2017-Dec-14 20:00S 20°52' E 165°16'0 0.0 24.6
2017-Dec-14 18:00S 20°52' E 165°16'0 0.0 23.6
2017-Dec-14 16:00S 20°52' E 165°16'1 0.6 24.0
2017-Dec-14 15:00S 20°52' E 165°16'0 0.0 24.2
2017-Dec-14 11:00S 20°52' E 165°16'1 0.8 25.5
2017-Dec-14 10:00S 20°52' E 165°16'0 0.0 25.7
2017-Dec-14 09:00S 20°52' E 165°16'1 0.6 25.9
2017-Dec-14 08:00S 20°52' E 165°16'0 0.0 26.4
2017-Dec-14 07:00S 20°52' E 165°16'0 0.0 26.9
2017-Dec-14 06:00S 20°52' E 165°16'0 0.0 28.1
2017-Dec-14 05:00S 20°52' E 165°16'0 0.0 27.9
2017-Dec-14 03:00S 20°52' E 165°16'0 0.0 28.9
2017-Dec-13 22:00S 20°52' E 165°16'1 0.6 24.9
2017-Dec-13 21:00S 20°52' E 165°16'0 0.0 23.6
2017-Dec-13 19:00S 20°52' E 165°16'1 0.2 23.1
2017-Dec-13 16:00S 20°52' E 165°16'1 0.6 24.0
2017-Dec-13 15:00S 20°52' E 165°16'0 0.0 24.1
2017-Dec-13 14:00S 20°52' E 165°16'1 0.2 24.2
2017-Dec-13 11:00S 20°52' E 165°16'1 0.6 24.8
2017-Dec-13 10:00S 20°52' E 165°16'1 0.3 26.0
2017-Dec-13 08:00S 20°52' E 165°16'0 0.0 27.7
2017-Dec-13 07:00S 20°52' E 165°16'0 0.0 28.6
2017-Dec-13 06:00S 20°52' E 165°16'0 0.0 27.7
2017-Dec-13 05:00S 20°52' E 165°16'1 0.6 32.5
2017-Dec-13 04:00S 20°52' E 165°16'0 0.0 32.5
2017-Dec-13 03:00S 20°52' E 165°16'0 0.0 31.8
2017-Dec-12 23:00S 20°52' E 165°16'0 0.0 28.0
2017-Dec-12 22:00S 20°52' E 165°16'1 0.3 27.2
2017-Dec-12 20:00S 20°52' E 165°16'0 0.0 26.3
2017-Dec-12 19:00S 20°52' E 165°16'0 0.0 26.4
2017-Dec-12 18:00S 20°52' E 165°16'1 0.6 26.6
2017-Dec-12 17:00S 20°52' E 165°16'1 0.6 26.8
2017-Dec-12 16:00S 20°52' E 165°16'0 0.0 27.0
2017-Dec-12 11:00S 20°52' E 165°16'1 0.6 28.6
2017-Dec-12 10:00S 20°52' E 165°16'0 0.0 29.1
2017-Dec-12 09:00S 20°52' E 165°16'1 0.6 29.7
2017-Dec-12 08:00S 20°52' E 165°16'1 0.6 30.5
2017-Dec-12 07:00S 20°52' E 165°16'0 0.0 31.2
2017-Dec-12 06:00S 20°52' E 165°16'1 0.6 31.8
2017-Dec-12 05:00S 20°52' E 165°16'1 0.6 31.8
2017-Dec-12 04:00S 20°52' E 165°16'0 0.0 31.0
2017-Dec-12 03:00S 20°52' E 165°16'1 0.1 29.6
2017-Dec-11 22:00S 20°52' E 165°16'1 1.1 26.4
2017-Dec-11 21:00S 20°52' E 165°15'1 0.4 26.0
2017-Dec-11 18:00S 20°52' E 165°16'1 0.6 26.1
2017-Dec-11 17:00S 20°52' E 165°16'0 0.0 26.3
2017-Dec-11 16:00S 20°52' E 165°16'0 0.0 26.5
2017-Dec-11 15:00S 20°52' E 165°16'1 0.1 26.7
2017-Dec-11 11:00S 20°52' E 165°16'0 0.0 27.8
2017-Dec-11 10:00S 20°52' E 165°16'0 0.0 28.2
2017-Dec-11 08:00S 20°52' E 165°16'0 0.0 30.0
2017-Dec-11 06:00S 20°52' E 165°16'1 0.6 30.9
2017-Dec-11 05:00S 20°52' E 165°16'0 0.0 30.8
2017-Dec-11 04:00S 20°52' E 165°16'0 0.0 30.1
2017-Dec-11 03:00S 20°52' E 165°16'0 0.0 29.3
2017-Dec-10 23:00S 20°52' E 165°16'1 1.1 26.8
2017-Dec-10 22:00S 20°52' E 165°17'1 1.1 27.3
2017-Dec-10 21:00S 20°52' E 165°16'0 0.0 27.4
2017-Dec-10 20:00S 20°52' E 165°16'2 1.8 27.5
2017-Dec-10 19:00S 20°52' E 165°17'1 0.8 27.8
2017-Dec-10 18:00S 20°52' E 165°17'1 0.6 28.0
2017-Dec-10 17:00S 20°52' E 165°16'0 0.0 28.2
2017-Dec-10 16:00S 20°52' E 165°16'0 0.0 28.5
2017-Dec-10 11:00S 20°52' E 165°16'1 0.6 30.2
2017-Dec-10 10:00S 20°52' E 165°16'0 0.0 30.6
2017-Dec-10 09:00S 20°52' E 165°16'1 0.6 31.1
2017-Dec-10 08:00S 20°52' E 165°16'1 0.6 31.6
2017-Dec-10 07:00S 20°52' E 165°16'1 0.6 32.1
2017-Dec-10 06:00S 20°52' E 165°16'1 0.6 32.3
2017-Dec-10 05:00S 20°52' E 165°16'0 0.0 32.1
2017-Dec-10 04:00S 20°52' E 165°16'0 0.0 31.6
2017-Dec-09 21:00S 20°52' E 165°16'0 0.0 26.8
2017-Dec-09 20:00S 20°52' E 165°16'1 0.6 26.6
2017-Dec-09 19:00S 20°52' E 165°16'0 0.0 26.7
2017-Dec-09 18:00S 20°52' E 165°16'0 0.0 26.9
2017-Dec-09 17:00S 20°52' E 165°16'0 0.0 27.1
2017-Dec-09 11:00S 20°52' E 165°16'0 0.0 28.5
2017-Dec-09 10:00S 20°52' E 165°16'1 0.6 28.7
2017-Dec-09 09:00S 20°52' E 165°16'1 0.6 29.0
2017-Dec-09 08:00S 20°52' E 165°16'1 0.2 29.3
2017-Dec-09 05:00S 20°52' E 165°16'1 0.6 30.0
2017-Dec-09 04:00S 20°52' E 165°16'1 0.1 29.8
2017-Dec-08 22:00S 20°52' E 165°16'0 0.0 27.2
2017-Dec-08 21:00S 20°52' E 165°16'0 0.0 27.1
2017-Dec-08 20:00S 20°52' E 165°16'0 0.0 27.1
2017-Dec-08 19:00S 20°52' E 165°16'1 0.6 27.1
2017-Dec-08 18:00S 20°52' E 165°16'1 0.3 27.2
2017-Dec-08 16:00S 20°52' E 165°16'0 0.0 27.4
2017-Dec-08 15:00S 20°52' E 165°16'1 0.1 27.5
2017-Dec-08 11:00S 20°52' E 165°16'1 0.6 28.7
2017-Dec-08 10:00S 20°52' E 165°16'1 0.6 30.3
2017-Dec-08 09:00S 20°52' E 165°16'1 0.8 31.1
2017-Dec-08 08:00S 20°52' E 165°15'1 0.6 31.6
2017-Dec-08 06:00S 20°52' E 165°16'2 0.9 32.5
2017-Dec-08 04:00S 20°52' E 165°14'1 0.3 33.2
2017-Dec-07 23:00S 20°52' E 165°16'1 0.6 28.4
2017-Dec-07 22:00S 20°52' E 165°16'1 0.3 28.0
2017-Dec-07 20:00S 20°52' E 165°16'0 0.0 27.3
2017-Dec-07 18:00S 20°52' E 165°16'0 0.0 27.4
2017-Dec-07 16:00S 20°52' E 165°16'1 0.6 27.7
2017-Dec-07 15:00S 20°52' E 165°16'0 0.0 27.8
2017-Dec-07 12:00S 20°52' E 165°16'0 0.0 28.0
2017-Dec-07 11:00S 20°52' E 165°16'1 0.6 28.1
2017-Dec-07 10:00S 20°52' E 165°16'0 0.0 28.6
2017-Dec-07 09:00S 20°52' E 165°16'1 0.6 29.6
2017-Dec-07 08:00S 20°52' E 165°16'0 0.0 32.6
2017-Dec-07 07:00S 20°52' E 165°16'0 0.0 33.5
2017-Dec-07 04:00S 20°52' E 165°16'1 0.1 34.2
2017-Dec-06 22:00S 20°52' E 165°16'   27.0
Track history (hours):
 
Tides and Currents Weather Stations Pressure Air Temp Water Temp Dewpoint Dewpoint Depression Visibility Wind Speed Wind Dir Waves Ship Positions

Drifting buoy 55932

Last reported at 2017-Dec-16 22:00 UTC. Time now 2017-Dec-17 00:37 UTC.
Position S 20°52' E 165°16'.

Water temperature 24.1 ° C

Date/timePositionNaut miles runAvg speedWind from/ knotsBaromVisibWave heightAir tempDewpointWater temp
2017-Dec-16 22:00S 20°52' E 165°16'0 0.0 24.1
2017-Dec-16 19:00S 20°52' E 165°16'0 0.0 23.4
2017-Dec-16 16:00S 20°52' E 165°16'0 0.0 22.8
2017-Dec-16 15:00S 20°52' E 165°16'1 0.1 23.5
2017-Dec-16 11:00S 20°52' E 165°16'1 0.6 23.8
2017-Dec-16 10:00S 20°52' E 165°16'0 0.0 24.2
2017-Dec-16 09:00S 20°52' E 165°16'0 0.0 24.9
2017-Dec-16 08:00S 20°52' E 165°16'0 0.0 24.2
2017-Dec-16 07:00S 20°52' E 165°16'0 0.0 24.4
2017-Dec-16 06:00S 20°52' E 165°16'1 0.6 24.2
2017-Dec-16 05:00S 20°52' E 165°16'0 0.0 24.2
2017-Dec-16 04:00S 20°52' E 165°16'1 0.1 23.9
2017-Dec-15 23:00S 20°52' E 165°16'0 0.0 25.5
2017-Dec-15 22:00S 20°52' E 165°16'1 0.6 25.4
2017-Dec-15 21:00S 20°52' E 165°16'1 0.6 25.6
2017-Dec-15 20:00S 20°52' E 165°16'1 0.3 25.4
2017-Dec-15 18:00S 20°52' E 165°16'1 0.3 25.1
2017-Dec-15 16:00S 20°52' E 165°16'0 0.0 25.4
2017-Dec-15 15:00S 20°52' E 165°16'0 0.0 26.0
2017-Dec-15 10:00S 20°52' E 165°16'0 0.0 25.3
2017-Dec-15 09:00S 20°52' E 165°16'0 0.0 26.3
2017-Dec-15 08:00S 20°52' E 165°16'0 0.0 26.8
2017-Dec-15 07:00S 20°52' E 165°16'0 0.0 27.1
2017-Dec-15 06:00S 20°52' E 165°16'0 0.0 27.6
2017-Dec-15 05:00S 20°52' E 165°16'0 0.0 28.6
2017-Dec-15 04:00S 20°52' E 165°16'0 0.0 28.4
2017-Dec-14 23:00S 20°52' E 165°16'0 0.0 27.8
2017-Dec-14 21:00S 20°52' E 165°16'0 0.0 25.6
2017-Dec-14 20:00S 20°52' E 165°16'0 0.0 24.6
2017-Dec-14 18:00S 20°52' E 165°16'0 0.0 23.6
2017-Dec-14 16:00S 20°52' E 165°16'1 0.6 24.0
2017-Dec-14 15:00S 20°52' E 165°16'0 0.0 24.2
2017-Dec-14 11:00S 20°52' E 165°16'1 0.8 25.5
2017-Dec-14 10:00S 20°52' E 165°16'0 0.0 25.7
2017-Dec-14 09:00S 20°52' E 165°16'1 0.6 25.9
2017-Dec-14 08:00S 20°52' E 165°16'0 0.0 26.4
2017-Dec-14 07:00S 20°52' E 165°16'0 0.0 26.9
2017-Dec-14 06:00S 20°52' E 165°16'0 0.0 28.1
2017-Dec-14 05:00S 20°52' E 165°16'0 0.0 27.9
2017-Dec-14 03:00S 20°52' E 165°16'0 0.0 28.9
2017-Dec-13 22:00S 20°52' E 165°16'1 0.6 24.9
2017-Dec-13 21:00S 20°52' E 165°16'0 0.0 23.6
2017-Dec-13 19:00S 20°52' E 165°16'1 0.2 23.1
2017-Dec-13 16:00S 20°52' E 165°16'1 0.6 24.0
2017-Dec-13 15:00S 20°52' E 165°16'0 0.0 24.1
2017-Dec-13 14:00S 20°52' E 165°16'1 0.2 24.2
2017-Dec-13 11:00S 20°52' E 165°16'1 0.6 24.8
2017-Dec-13 10:00S 20°52' E 165°16'1 0.3 26.0
2017-Dec-13 08:00S 20°52' E 165°16'0 0.0 27.7
2017-Dec-13 07:00S 20°52' E 165°16'0 0.0 28.6
2017-Dec-13 06:00S 20°52' E 165°16'0 0.0 27.7
2017-Dec-13 05:00S 20°52' E 165°16'1 0.6 32.5
2017-Dec-13 04:00S 20°52' E 165°16'0 0.0 32.5
2017-Dec-13 03:00S 20°52' E 165°16'0 0.0 31.8
2017-Dec-12 23:00S 20°52' E 165°16'0 0.0 28.0
2017-Dec-12 22:00S 20°52' E 165°16'1 0.3 27.2
2017-Dec-12 20:00S 20°52' E 165°16'0 0.0 26.3
2017-Dec-12 19:00S 20°52' E 165°16'0 0.0 26.4
2017-Dec-12 18:00S 20°52' E 165°16'1 0.6 26.6
2017-Dec-12 17:00S 20°52' E 165°16'1 0.6 26.8
2017-Dec-12 16:00S 20°52' E 165°16'0 0.0 27.0
2017-Dec-12 11:00S 20°52' E 165°16'1 0.6 28.6
2017-Dec-12 10:00S 20°52' E 165°16'0 0.0 29.1
2017-Dec-12 09:00S 20°52' E 165°16'1 0.6 29.7
2017-Dec-12 08:00S 20°52' E 165°16'1 0.6 30.5
2017-Dec-12 07:00S 20°52' E 165°16'0 0.0 31.2
2017-Dec-12 06:00S 20°52' E 165°16'1 0.6 31.8
2017-Dec-12 05:00S 20°52' E 165°16'1 0.6 31.8
2017-Dec-12 04:00S 20°52' E 165°16'0 0.0 31.0
2017-Dec-12 03:00S 20°52' E 165°16'1 0.1 29.6
2017-Dec-11 22:00S 20°52' E 165°16'1 1.1 26.4
2017-Dec-11 21:00S 20°52' E 165°15'1 0.4 26.0
2017-Dec-11 18:00S 20°52' E 165°16'1 0.6 26.1
2017-Dec-11 17:00S 20°52' E 165°16'0 0.0 26.3
2017-Dec-11 16:00S 20°52' E 165°16'0 0.0 26.5
2017-Dec-11 15:00S 20°52' E 165°16'1 0.1 26.7
2017-Dec-11 11:00S 20°52' E 165°16'0 0.0 27.8
2017-Dec-11 10:00S 20°52' E 165°16'0 0.0 28.2
2017-Dec-11 08:00S 20°52' E 165°16'0 0.0 30.0
2017-Dec-11 06:00S 20°52' E 165°16'1 0.6 30.9
2017-Dec-11 05:00S 20°52' E 165°16'0 0.0 30.8
2017-Dec-11 04:00S 20°52' E 165°16'0 0.0 30.1
2017-Dec-11 03:00S 20°52' E 165°16'0 0.0 29.3
2017-Dec-10 23:00S 20°52' E 165°16'1 1.1 26.8
2017-Dec-10 22:00S 20°52' E 165°17'1 1.1 27.3
2017-Dec-10 21:00S 20°52' E 165°16'0 0.0 27.4
2017-Dec-10 20:00S 20°52' E 165°16'2 1.8 27.5
2017-Dec-10 19:00S 20°52' E 165°17'1 0.8 27.8
2017-Dec-10 18:00S 20°52' E 165°17'1 0.6 28.0
2017-Dec-10 17:00S 20°52' E 165°16'0 0.0 28.2
2017-Dec-10 16:00S 20°52' E 165°16'0 0.0 28.5
2017-Dec-10 11:00S 20°52' E 165°16'1 0.6 30.2
2017-Dec-10 10:00S 20°52' E 165°16'0 0.0 30.6
2017-Dec-10 09:00S 20°52' E 165°16'1 0.6 31.1
2017-Dec-10 08:00S 20°52' E 165°16'1 0.6 31.6
2017-Dec-10 07:00S 20°52' E 165°16'1 0.6 32.1
2017-Dec-10 06:00S 20°52' E 165°16'1 0.6 32.3
2017-Dec-10 05:00S 20°52' E 165°16'0 0.0 32.1
2017-Dec-10 04:00S 20°52' E 165°16'0 0.0 31.6
2017-Dec-09 21:00S 20°52' E 165°16'0 0.0 26.8
2017-Dec-09 20:00S 20°52' E 165°16'1 0.6 26.6
2017-Dec-09 19:00S 20°52' E 165°16'0 0.0 26.7
2017-Dec-09 18:00S 20°52' E 165°16'0 0.0 26.9
2017-Dec-09 17:00S 20°52' E 165°16'0 0.0 27.1
2017-Dec-09 11:00S 20°52' E 165°16'0 0.0 28.5
2017-Dec-09 10:00S 20°52' E 165°16'1 0.6 28.7
2017-Dec-09 09:00S 20°52' E 165°16'1 0.6 29.0
2017-Dec-09 08:00S 20°52' E 165°16'1 0.2 29.3
2017-Dec-09 05:00S 20°52' E 165°16'1 0.6 30.0
2017-Dec-09 04:00S 20°52' E 165°16'1 0.1 29.8
2017-Dec-08 22:00S 20°52' E 165°16'0 0.0 27.2
2017-Dec-08 21:00S 20°52' E 165°16'0 0.0 27.1
2017-Dec-08 20:00S 20°52' E 165°16'0 0.0 27.1
2017-Dec-08 19:00S 20°52' E 165°16'1 0.6 27.1
2017-Dec-08 18:00S 20°52' E 165°16'1 0.3 27.2
2017-Dec-08 16:00S 20°52' E 165°16'0 0.0 27.4
2017-Dec-08 15:00S 20°52' E 165°16'1 0.1 27.5
2017-Dec-08 11:00S 20°52' E 165°16'1 0.6 28.7
2017-Dec-08 10:00S 20°52' E 165°16'1 0.6 30.3
2017-Dec-08 09:00S 20°52' E 165°16'1 0.8 31.1
2017-Dec-08 08:00S 20°52' E 165°15'1 0.6 31.6
2017-Dec-08 06:00S 20°52' E 165°16'2 0.9 32.5
2017-Dec-08 04:00S 20°52' E 165°14'1 0.3 33.2
2017-Dec-07 23:00S 20°52' E 165°16'1 0.6 28.4
2017-Dec-07 22:00S 20°52' E 165°16'1 0.3 28.0
2017-Dec-07 20:00S 20°52' E 165°16'0 0.0 27.3
2017-Dec-07 18:00S 20°52' E 165°16'0 0.0 27.4
2017-Dec-07 16:00S 20°52' E 165°16'1 0.6 27.7
2017-Dec-07 15:00S 20°52' E 165°16'0 0.0 27.8
2017-Dec-07 12:00S 20°52' E 165°16'0 0.0 28.0
2017-Dec-07 11:00S 20°52' E 165°16'1 0.6 28.1
2017-Dec-07 10:00S 20°52' E 165°16'0 0.0 28.6
2017-Dec-07 09:00S 20°52' E 165°16'1 0.6 29.6
2017-Dec-07 08:00S 20°52' E 165°16'0 0.0 32.6
2017-Dec-07 07:00S 20°52' E 165°16'0 0.0 33.5
2017-Dec-07 04:00S 20°52' E 165°16'1 0.1 34.2
2017-Dec-06 22:00S 20°52' E 165°16'   27.0

Dump ship's entire track history